Wind_Speed
25 19 44 42 40 37 44 44 31 30 26 26 32 37 39 42 45 47 46 54 56 51 53 56 49 46 40 53 54 58 62 64 70 63 63 56 49 47 47 51 53 55 58
31 16 29 50 44 45 38 49 36 37 29 32 29 30 36 43 46 51 50 53 53 53 48 51 55 51 54 51 55 60 67 71 68 64 52 49 51 51 53 55 57 57 60
33 21 16 39 49 47 42 50 46 39 42 35 35 36 37 43 43 49 48 55 55 55 55 53 57 61 61 64 68 71 69 66 61 58 51 51 55 55 56 56 56 59 62
34 27 17 17 40 40 47 47 53 48 46 44 41 43 47 46 49 54 55 54 52 52 55 60 66 68 69 70 69 66 61 56 58 55 54 56 57 55 56 55 59 64 62
33 28 19 14 25 40 44 53 54 58 55 51 52 47 56 55 49 54 55 60 65 68 69 71 69 72 74 68 66 54 58 58 56 53 52 53 56 57 59 61 61 59 57
30 28 18 17 15 32 37 35 46 49 53 50 59 61 53 55 64 65 61 65 65 67 69 71 75 73 65 56 58 59 56 56 52 51 55 58 57 57 61 62 60 55 62
26 26 23 17 13 17 23 34 42 46 50 56 56 61 59 58 57 65 72 73 76 77 80 79 64 59 55 55 59 59 55 50 50 54 58 57 57 57 57 59 56 65 70
21 23 21 17 13 11 17 22 31 34 34 35 45 58 52 55 55 55 63 64 62 67 66 67 60 57 54 52 55 52 52 51 48 52 52 48 46 45 51 52 66 74 74
18 21 20 18 14 13 13 19 23 26 27 28 31 42 43 47 50 55 50 52 54 56 52 51 52 51 52 55 49 47 48 44 52 55 60 61 59 59 59 64 74 72 73
18 19 18 17 16 12 13 13 18 26 28 28 28 31 33 37 40 42 44 46 46 47 49 50 53 52 48 44 43 43 42 43 44 47 54 55 58 65 71 71 72 78 77
21 19 17 14 11 11 9 13 15 17 23 27 30 32 32 34 39 40 43 45 46 48 51 53 51 48 44 45 43 43 45 45 50 48 50 47 62 62 68 72 74 78 74
26 21 19 16 15 11 5 8 12 16 19 20 23 24 28 32 34 33 35 39 41 42 43 44 45 45 43 43 40 43 45 47 50 48 47 51 61 63 66 75 73 71 72
32 25 21 18 13 11 8 7 5 4 6 8 14 16 19 22 25 29 32 34 35 37 33 27 27 28 27 33 38 41 43 48 51 51 59 55 60 65 65 69 74 75 78
34 32 26 21 18 13 10 10 10 9 10 10 10 11 10 11 13 14 16 18 18 19 20 20 24 28 35 38 39 42 45 43 45 47 52 57 61 69 73 77 78 81 83
38 34 34 27 25 18 14 12 13 13 13 14 15 17 18 18 19 19 21 22 23 25 27 27 32 34 34 37 41 46 50 53 55 57 60 63 65 70 75 78 81 85 89
39 38 39 38 30 27 24 17 15 16 17 17 16 16 18 19 20 21 24 26 30 33 35 38 43 43 46 49 51 53 56 58 59 61 65 66 65 74 79 79 79 83 88
45 43 42 41 36 35 32 27 22 22 24 25 24 22 22 23 23 24 27 28 30 33 36 40 44 47 50 53 55 59 59 62 65 66 67 67 73 77 80 85 89 91 91
51 51 45 44 41 39 36 36 31 30 32 30 31 32 31 30 29 30 32 33 36 39 40 43 47 50 51 55 59 62 64 66 68 70 72 77 77 81 84 84 87 90 94
56 56 51 46 45 42 41 39 41 39 38 37 35 35 36 37 35 34 36 39 43 44 46 48 51 55 57 61 65 68 70 72 75 77 79 80 80 86 90 91 91 93 96
60 60 56 51 48 44 45 41 41 44 43 43 43 43 45 43 41 39 41 44 47 49 50 52 55 58 61 66 70 73 77 79 81 82 83 83 87 91 94 97 96 99 100
59 63 62 54 55 43 48 48 45 47 47 49 50 50 50 49 47 45 46 49 51 52 54 56 59 63 66 71 76 80 82 83 85 85 86 89 93 96 102 101 102 104 108
60 64 67 60 58 55 48 48 49 50 52 52 56 55 50 51 51 51 51 53 56 58 61 64 68 71 75 78 84 86 87 88 89 89 92 95 98 104 107 107 108 112 116
64 63 67 68 62 63 68 70 62 59 60 62 61 56 55 57 57 57 57 60 63 65 68 73 75 78 83 85 91 92 90 92 92 94 98 102 107 110 112 113 117 121 123
66 68 71 74 70 63 69 71 71 69 66 66 63 59 59 62 62 64 64 67 71 73 79 80 83 87 90 92 97 101 98 96 98 101 106 110 114 117 120 123 126 127 129
69 74 76 76 73 69 66 70 72 73 74 74 66 66 68 68 68 68 69 74 77 81 86 88 90 94 95 100 105 107 99 100 104 109 114 118 122 125 128 132 132 134 137
72 71 71 73 73 70 67 71 72 72 71 73 73 74 73 73 74 74 78 81 86 89 92 95 97 99 103 106 112 106 104 107 112 117 121 126 129 133 136 136 138 141 139
Wind_Direction
320 280 229 224 225 209 201 198 207 204 203 203 195 207 218 211 207 216 223 227 233 236 240 249 267 277 275 281 285 287 292 292 295 297 296 295 293 289 285 280 283 286 288
323 307 243 231 225 217 212 207 204 202 209 209 213 213 216 219 218 223 227 229 235 242 253 261 264 270 277 281 282 285 287 291 291 295 291 285 285 286 279 283 288 286 284
325 323 302 238 232 226 221 210 207 214 208 216 224 228 230 221 228 231 232 234 243 244 253 258 261 268 275 278 280 285 288 291 292 291 284 282 285 286 286 287 285 286 288
323 326 314 269 235 233 229 220 218 214 216 220 224 226 233 237 241 234 238 238 244 251 258 263 270 273 274 280 283 288 289 289 289 287 284 284 286 284 283 285 286 292 291
319 329 314 293 248 237 235 231 228 227 229 231 228 233 228 236 236 238 244 250 251 255 261 264 267 271 273 280 283 286 285 286 284 284 282 283 285 286 285 286 288 291 295
317 328 321 301 256 236 238 239 238 242 236 240 233 238 244 241 238 242 242 245 247 253 258 266 269 270 277 282 284 283 284 285 283 284 281 279 283 285 286 286 283 286 301
314 322 323 309 277 237 236 239 242 245 243 240 239 244 246 250 248 244 247 251 252 258 260 269 274 276 276 278 283 286 286 288 284 285 287 289 289 286 283 281 283 294 313
309 316 323 304 291 268 239 234 240 242 239 241 244 243 249 250 254 257 257 258 259 262 267 270 270 274 274 277 282 282 282 282 283 282 281 282 293 285 280 288 307 314 320
298 305 311 313 285 268 270 249 240 240 238 239 242 245 249 254 256 258 261 264 265 268 265 265 269 271 275 280 280 280 280 281 284 288 298 303 302 303 304 312 314 316 312
282 295 296 303 298 276 261 261 253 246 244 245 242 243 248 253 254 255 259 261 264 264 266 268 270 273 276 276 277 274 272 284 297 308 306 312 309 309 312 311 313 308 306
272 281 286 291 297 292 280 261 252 250 249 247 249 253 258 262 264 262 261 263 264 267 270 271 271 274 275 276 277 267 272 286 296 296 297 302 295 299 298 302 298 299 305
267 271 279 277 272 284 318 282 262 249 252 255 259 259 256 255 257 261 261 263 267 270 272 275 277 279 276 272 274 272 285 295 299 301 300 292 286 289 292 287 294 299 301
258 258 268 276 283 278 276 288 296 257 242 246 247 250 254 257 262 265 268 269 269 267 267 271 276 282 279 276 268 277 295 293 296 292 290 285 280 282 289 294 297 296 296
248 257 254 262 271 280 287 278 272 264 279 287 268 258 246 247 256 261 270 278 275 273 278 289 290 280 286 288 288 290 289 287 287 291 293 292 292 292 293 292 292 294 297
250 252 257 252 259 263 264 264 272 278 284 281 282 290 292 295 297 297 297 290 279 277 275 282 288 287 283 282 282 283 285 287 288 289 291 292 292 293 293 293 293 292 293
248 247 253 256 251 254 257 256 262 274 273 273 277 281 286 286 289 293 300 295 291 286 281 282 291 289 287 286 285 285 286 287 288 290 290 293 297 300 298 300 296 295 296
241 238 248 255 255 251 251 249 252 259 267 272 277 279 281 283 290 294 296 296 295 292 291 289 291 291 291 290 290 291 292 291 291 291 291 293 295 301 303 300 301 297 296
234 232 240 247 252 255 254 255 252 253 259 266 273 276 279 281 283 287 293 295 296 295 293 292 293 294 295 294 294 295 295 294 293 293 295 296 296 299 303 299 296 296 298
233 231 233 240 245 253 255 257 258 261 259 262 267 271 275 279 280 285 290 293 291 292 292 292 293 294 295 295 295 297 297 297 297 297 299 300 300 301 302 303 300 299 299
231 230 231 237 241 246 251 248 253 254 258 265 269 272 275 278 279 282 287 289 289 290 293 295 297 300 300 299 298 298 299 300 300 299 300 302 303 303 303 303 300 299 301
230 229 229 235 236 245 247 246 247 251 258 263 269 271 275 279 280 284 286 287 289 292 295 297 300 301 304 307 306 302 299 298 298 298 301 302 303 303 304 303 301 302 302
229 230 231 230 236 234 236 244 249 253 259 261 265 265 271 275 279 283 285 286 288 290 293 296 299 302 303 304 308 305 301 299 299 302 303 303 302 303 304 302 302 302 302
229 231 232 233 238 241 249 250 244 244 247 252 259 271 272 275 279 282 284 286 288 290 292 295 297 299 303 303 306 304 300 301 302 303 303 303 303 305 303 302 303 303 304
231 233 233 233 233 241 248 253 256 260 258 259 264 268 272 276 279 282 286 288 289 289 292 293 296 300 301 303 305 305 302 303 303 303 303 303 304 304 304 305 305 305 304
230 235 235 233 237 239 247 252 258 261 264 269 269 271 275 277 279 282 284 287 289 290 292 294 296 299 301 303 304 305 303 304 303 303 304 305 305 304 305 304 305 304 303
233 237 243 240 240 242 248 252 256 261 264 268 271 275 279 280 281 281 283 287 290 292 294 295 296 299 300 302 304 303 304 303 303 304 305 305 304 304 304 304 304 302 301
Height
10597 10593 10594 10598 10604 10610 10616 10621 10626 10633 10637 10640 10645 10649 10654 10658 10661 10664 10669 10671 10673 10677 10679 10680 10682 10682 10682 10683 10681 10679 10678 10675 10673 10670 10667 10663 10661 10658 10655 10652 10651 10648 10643
10593 10588 10586 10589 10596 10602 10608 10615 10620 10628 10633 10637 10641 10645 10650 10654 10656 10659 10663 10664 10666 10669 10671 10672 10674 10673 10673 10672 10672 10671 10667 10664 10661 10658 10655 10651 10648 10646 10642 10639 10636 10634 10629
10588 10583 10580 10580 10587 10594 10601 10609 10615 10620 10625 10632 10638 10641 10644 10648 10650 10652 10654 10656 10658 10660 10661 10662 10664 10664 10664 10662 10661 10659 10656 10652 10648 10646 10641 10637 10635 10634 10630 10625 10622 10619 10613
10584 10579 10575 10573 10576 10584 10593 10601 10609 10613 10620 10624 10630 10634 10639 10641 10643 10646 10647 10649 10650 10652 10653 10653 10654 10653 10652 10651 10648 10644 10642 10638 10635 10632 10630 10625 10623 10620 10615 10613 10606 10603 10597
10579 10575 10571 10569 10568 10575 10583 10591 10599 10606 10612 10618 10621 10627 10629 10634 10638 10639 10641 10643 10644 10644 10645 10644 10644 10642 10639 10637 10634 10633 10629 10625 10623 10619 10618 10613 10610 10605 10602 10596 10591 10589 10584
10576 10571 10568 10567 10567 10569 10573 10580 10588 10594 10601 10606 10613 10616 10619 10624 10627 10630 10630 10631 10633 10635 10635 10632 10631 10628 10624 10622 10620 10618 10615 10612 10609 10605 10603 10599 10597 10593 10586 10583 10575 10572 10565
10572 10568 10565 10564 10564 10564 10567 10572 10577 10583 10588 10594 10599 10604 10608 10611 10615 10617 10619 10619 10620 10620 10619 10617 10614 10612 10611 10610 10607 10604 10599 10596 10594 10590 10588 10586 10583 10577 10572 10567 10565 10559 10551
10569 10567 10563 10561 10560 10561 10563 10565 10570 10575 10577 10582 10587 10591 10596 10598 10600 10603 10606 10608 10607 10605 10603 10602 10601 10601 10600 10597 10595 10590 10584 10581 10576 10574 10572 10571 10567 10565 10560 10555 10546 10540 10530
10565 10563 10562 10558 10558 10558 10559 10560 10563 10567 10571 10574 10576 10581 10584 10586 10588 10589 10590 10591 10591 10589 10589 10589 10589 10588 10585 10584 10583 10577 10572 10568 10564 10557 10553 10550 10546 10545 10541 10533 10526 10518 10515
10560 10560 10558 10555 10554 10554 10554 10556 10557 10560 10562 10567 10568 10571 10573 10576 10576 10577 10578 10580 10579 10577 10578 10579 10578 10573 10570 10568 10565 10563 10560 10555 10548 10544 10539 10535 10529 10524 10519 10516 10510 10505 10499
10556 10556 10555 10553 10552 10551 10550 10550 10551 10554 10555 10557 10558 10560 10563 10565 10566 10567 10567 10567 10563 10564 10564 10566 10565 10561 10558 10556 10556 10553 10547 10542 10538 10534 10530 10528 10524 10518 10511 10505 10502 10497 10487
10549 10550 10550 10549 10548 10547 10546 10546 10545 10547 10548 10550 10550 10552 10554 10556 10557 10556 10555 10554 10552 10553 10553 10554 10552 10550 10545 10544 10542 10540 10536 10531 10529 10525 10522 10519 10515 10509 10503 10496 10493 10483 10475
10541 10543 10544 10544 10543 10542 10541 10542 10541 10542 10544 10545 10545 10547 10547 10548 10548 10547 10546 10545 10544 10545 10545 10545 10542 10538 10536 10534 10531 10530 10528 10523 10519 10517 10514 10508 10504 10498 10492 10484 10475 10468 10461
10533 10535 10537 10539 10538 10536 10535 10537 10538 10538 10539 10540 10540 10540 10540 10540 10541 10540 10538 10537 10537 10537 10537 10535 10533 10532 10529 10525 10521 10520 10518 10514 10509 10504 10500 10494 10489 10482 10475 10467 10460 10450 10440
10526 10527 10529 10530 10533 10533 10531 10532 10534 10534 10535 10535 10535 10534 10533 10532 10531 10531 10531 10532 10531 10531 10530 10528 10527 10524 10520 10516 10513 10510 10506 10501 10495 10490 10485 10479 10474 10467 10460 10451 10441 10430 10420
10514 10517 10518 10519 10523 10526 10527 10526 10527 10528 10529 10529 10529 10529 10528 10527 10527 10526 10525 10524 10523 10522 10520 10518 10515 10512 10510 10506 10502 10498 10492 10485 10481 10477 10469 10463 10456 10446 10437 10431 10420 10409 10398
10504 10507 10507 10509 10513 10515 10518 10519 10520 10521 10521 10522 10523 10523 10522 10521 10520 10519 10517 10516 10514 10512 10510 10507 10504 10501 10496 10491 10486 10481 10477 10471 10466 10460 10453 10445 10437 10426 10415 10403 10395 10388 10379
10485 10492 10498 10501 10504 10506 10508 10510 10511 10511 10512 10513 10513 10513 10513 10512 10510 10509 10507 10505 10503 10501 10498 10494 10490 10486 10482 10475 10469 10464 10459 10453 10447 10441 10435 10427 10418 10409 10400 10391 10378 10368 10356
10473 10479 10485 10489 10493 10496 10497 10500 10501 10501 10502 10502 10502 10502 10501 10500 10499 10498 10496 10493 10491 10488 10484 10480 10476 10471 10467 10461 10454 10447 10440 10433 10426 10418 10411 10403 10395 10387 10378 10366 10354 10342 10330
10458 10465 10472 10478 10481 10484 10487 10489 10491 10491 10491 10492 10492 10491 10490 10489 10487 10485 10483 10480 10477 10474 10469 10465 10460 10455 10451 10444 10437 10429 10420 10412 10404 10396 10388 10379 10369 10359 10351 10340 10328 10316 10304
10445 10452 10458 10465 10468 10471 10474 10477 10479 10481 10480 10480 10480 10479 10478 10477 10475 10472 10469 10466 10462 10458 10454 10449 10444 10438 10432 10426 10418 10410 10402 10394 10385 10376 10366 10356 10345 10334 10323 10312 10300 10287 10275
10435 10439 10445 10449 10453 10454 10457 10463 10466 10467 10468 10466 10464 10466 10465 10463 10461 10458 10454 10451 10447 10442 10437 10432 10425 10420 10413 10405 10397 10388 10378 10370 10360 10349 10339 10330 10318 10307 10294 10281 10269 10257 10243
10420 10427 10434 10437 10440 10445 10448 10449 10448 10448 10448 10449 10450 10451 10450 10448 10446 10444 10440 10436 10430 10425 10419 10413 10407 10399 10392 10384 10375 10365 10354 10344 10333 10323 10312 10301 10289 10276 10263 10251 10238 10223 10208
10408 10413 10416 10419 10425 10430 10432 10434 10437 10439 10439 10438 10438 10438 10436 10433 10431 10428 10423 10418 10412 10406 10399 10392 10385 10378 10370 10361 10351 10341 10329 10317 10306 10294 10283 10271 10259 10245 10230 10215 10201 10186 10172
10394 10395 10399 10405 10413 10416 10421 10423 10424 10424 10424 10423 10423 10422 10420 10418 10414 10410 10405 10399 10392 10385 10378 10370 10362 10353 10344 10335 10324 10313 10301 10290 10278 10265 10252 10238 10223 10208 10194 10180 10165 10149 10135
10381 10385 10390 10397 10401 10404 10406 10406 10407 10408 10408 10407 10406 10404 10402 10400 10395 10391 10385 10379 10372 10363 10356 10347 10338 10329 10320 10309 10297 10285 10273 10261 10248 10234 10219 10204 10189 10174 10158 10142 10127 10114 10100